This is the latest recevied weather packets stored in our database for station/object DC1NF-7. If no packets are shown the sender has not sent any weather packets the latest 10 day(s).
| Time | Temp. | Humidity | Pressure | Rain* | Wind** | Luminosity | Snow |
|---|---|---|---|---|---|---|---|
| 1777659368 | 20° C | 37% | 1024.8 hPa | 0 mm | - | 15 W/m² | - |
| 1777658763 | 20.56° C | 36% | 1024.8 hPa | 0 mm | - | 21 W/m² | - |
| 1777658159 | 21.11° C | 36% | 1024.7 hPa | 0 mm | - | 31 W/m² | - |
| 1777657555 | 21.67° C | 34% | 1024.8 hPa | 0 mm | - | 42 W/m² | - |
| 1777656952 | 21.67° C | 33% | 1024.7 hPa | 0 mm | - | 52 W/m² | - |
| 1777656348 | 22.22° C | 33% | 1024.7 hPa | 0 mm | - | 62 W/m² | - |
| 1777655745 | 22.22° C | 33% | 1024.8 hPa | 0 mm | - | 77 W/m² | - |
| 1777655142 | 22.22° C | 32% | 1024.7 hPa | 0 mm | - | 106 W/m² | - |
| 1777654537 | 22.78° C | 31% | 1024.8 hPa | 0 mm | - | 129 W/m² | - |
| 1777653933 | 22.22° C | 31% | 1024.9 hPa | 0 mm | - | 145 W/m² | - |
| 1777653330 | 22.22° C | 31% | 1025 hPa | 0 mm | - | 155 W/m² | - |
| 1777652726 | 22.78° C | 30% | 1025.1 hPa | 0 mm | - | 169 W/m² | - |
| 1777652123 | 22.78° C | 30% | 1025.1 hPa | 0 mm | - | 185 W/m² | - |
| 1777651520 | 22.78° C | 31% | 1025.2 hPa | 0 mm | - | 203 W/m² | - |
| 1777650917 | 23.33° C | 31% | 1025.2 hPa | 0 mm | - | 226 W/m² | - |
| 1777650375 | 23.89° C | 29% | 1025.3 hPa | 0 mm | - | 253 W/m² | - |
| 1777649770 | 23.89° C | 30% | 1025.4 hPa | 0 mm | - | 281 W/m² | - |
| 1777649166 | 23.89° C | 30% | 1025.5 hPa | 0 mm | - | 309 W/m² | - |
| 1777647958 | 23.89° C | 30% | 1025.8 hPa | 0 mm | - | 367 W/m² | - |
| 1777647355 | 23.33° C | 30% | 1025.9 hPa | 0 mm | - | 395 W/m² | - |
| 1777646752 | 23.89° C | 30% | 1025.9 hPa | 0 mm | - | 429 W/m² | - |
| 1777646149 | 22.78° C | 30% | 1026 hPa | 0 mm | - | 468 W/m² | - |
| 1777645544 | 22.78° C | 30% | 1026 hPa | 0 mm | - | 511 W/m² | - |
| 1777644940 | 23.33° C | 30% | 1026.2 hPa | 0 mm | - | 552 W/m² | - |
| 1777644335 | 23.33° C | 30% | 1026.2 hPa | 0 mm | - | 586 W/m² | - |
* Rain latest hour (hover to see other rain measurements)
** Current wind speed in m/s (hover to see current wind gust speed)